Tracking 29892 objects as of 21-Nov-2024
HD Live streaming from Space Station
objects crossing your sky now

S80/T

Track S80/T now!
10-day predictions
S80/T is classified as:


NORAD ID: 22078
Int'l Code: 1992-052C
Perigee: 1,310.8 km
Apogee: 1,331.8 km
Inclination: 66.1 °
Period: 111.9 minutes
Semi major axis: 7692 km
RCS: 0.3013 m2 (medium)
Launch date: August 10, 1992
Source: France (FR)
Launch site: FRENCH GUIANA (FRGUI)
Your satellite tracking list
Your tracking list is empty




NASA's NSSDC Master Catalog

Two Line Element Set (TLE):
1 22078U 92052C   24325.62196842 -.00000030  00000-0  12794-3 0  9991
2 22078  66.0874  30.5574 0013642 228.0841 131.9015 12.86833224516435
Source of the keplerian elements: AFSPC